STARLINK-1901

decayed
NORAD ID: 46762 Int'l Des: 2020-074 Owner: SPXS Country: US Constellation: starlink
LEOCIRCULAR
Group

About STARLINK-1901

Description loading...

Altitude History

Altitude vs Time

uPlot chart will show altitude changes over time

Two-Line Element Set

1 46762U 20074Z 21318.51915708 .31528156 12388-4 18881-2 0 9994
2 46762 53.0344 174.2088 0003101 109.6822 251.0531 16.41577735 59455
Epoch: Nov 14, 2021 • Age: 33660 hours

Current Status

Position data unavailable
Launch Date Oct 24, 2020
Age 4.8 years
Decay Date Nov 14, 2021
Type internet

Technical Details

Classification Payload
Mass 260.00 kg
Dry Mass 248.00 kg
Total Mass 260.00 kg
Length 0.20 m
Diameter 2.80 m
Span 9.00 m
Shape Box + pan
Manufacturer SPXS
Bus Type Starlink
Phase Status Unknown Transfer Status
Owner/State SPXS/US

Large Constellations

Loading constellations...